Burlington, WA
on Tuesday, November 13, 2012

Tuesday
Previous Day Next Day
Daily Summary
 ActualAverage (KBLI)Record (KBLI)
Temperature
Mean Temperature °F 44°F  
Max Temperature 50°F 50°F 61°F (1975)
Min Temperature 44°F 37°F 10°F (1955)
Degree Days
Heating Degree Days 18 21  
Month to date heating degree days 258  
Cooling Degree Days 0 0  
Month to date cooling degree days 0  
Year to date cooling degree days 42  
Moisture
Dew Point 47°F   
Average Humidity 100    
Maximum Humidity 100    
Minimum Humidity 100    
Precipitation
Precipitation 0.34 in 0.20 in 0.94 in (1998)
Month to date precipitation 2.53  
Year to date precipitation 28.34  
Wind
Wind Speed 5 mph   
Max Wind Speed 12 mph   
Max Gust Speed mph   
Visibility 7 miles   
Events     

Key: T is trace of precipitation, MM is missing value
Source: NWS Daily Summary
Time(PST)TemperatureDew PointHumidity Pressure Visibility Wind DirectionWind SpeedGust SpeedPrecipitationEvents Conditions
12:15 AM 50.0°F 50.0°F 100% 30.21 in 10.0 miles SSE 3.5 mph - 0.00 in   Overcast
12:35 AM 50.0°F 50.0°F 100% 30.21 in 10.0 miles SE 4.6 mph - 0.00 in   Overcast
1:15 AM 50.0°F 50.0°F 100% 30.21 in 7.0 miles SSE 3.5 mph - 0.00 in   Overcast
1:35 AM 48.2°F 48.2°F 100% 30.21 in 9.0 miles SE 5.8 mph - 0.00 in   Overcast
1:55 AM 48.2°F 48.2°F 100% 30.21 in 7.0 miles SE 5.8 mph - 0.01 in   Overcast
2:15 AM 48.2°F 48.2°F 100% 30.21 in 7.0 miles SE 6.9 mph - 0.01 in   Overcast
2:35 AM 48.2°F 48.2°F 100% 30.21 in 5.0 miles SSE 3.5 mph - 0.02 in   Overcast
2:55 AM 48.2°F 48.2°F 100% 30.21 in 5.0 miles ESE 5.8 mph - 0.04 in   Overcast
3:15 AM 48.2°F 48.2°F 100% 30.21 in 5.0 miles Calm Calm - 0.02 in   Overcast
3:35 AM 48.2°F 48.2°F 100% 30.21 in 5.0 miles NNE 3.5 mph - 0.04 in   Overcast
3:55 AM 46.4°F 46.4°F 100% 30.21 in 5.0 miles NE 6.9 mph - 0.08 in   Overcast
4:15 AM 46.4°F 46.4°F 100% 30.20 in 5.0 miles ENE 6.9 mph - 0.01 in   Overcast
4:35 AM 46.4°F 46.4°F 100% 30.19 in 10.0 miles East 8.1 mph - 0.01 in   Overcast
4:55 AM 46.4°F 46.4°F 100% 30.19 in 8.0 miles ESE 6.9 mph - 0.01 in   Overcast
5:15 AM 46.4°F 46.4°F 100% 30.19 in 10.0 miles East 6.9 mph - 0.00 in   Overcast
5:35 AM 46.4°F 46.4°F 100% 30.20 in 10.0 miles ESE 5.8 mph - 0.00 in   Overcast
5:55 AM 46.4°F 46.4°F 100% 30.20 in 10.0 miles East 6.9 mph - 0.00 in   Overcast
6:15 AM 46.4°F 46.4°F 100% 30.20 in 2.5 miles ENE 6.9 mph - 0.00 in   Overcast
6:35 AM 46.4°F 46.4°F 100% 30.20 in 8.0 miles ENE 9.2 mph - 0.00 in   Overcast
6:55 AM 46.4°F 46.4°F 100% 30.20 in 7.0 miles ENE 8.1 mph - 0.00 in   Overcast
7:15 AM 46.4°F 46.4°F 100% 30.20 in 6.0 miles ENE 9.2 mph - 0.01 in   Overcast
7:35 AM 46.4°F 46.4°F 100% 30.20 in 9.0 miles ENE 10.4 mph - 0.01 in   Overcast
7:55 AM 46.4°F 46.4°F 100% 30.20 in 5.0 miles ENE 6.9 mph - 0.01 in   Overcast
8:15 AM 44.6°F 44.6°F 100% 30.20 in 2.5 miles ENE 9.2 mph - 0.03 in   Overcast
8:35 AM 44.6°F 44.6°F 100% 30.20 in 5.0 miles East 11.5 mph - 0.04 in   Overcast
8:55 AM 46.4°F 46.4°F 100% 30.20 in 5.0 miles East 6.9 mph - 0.04 in   Overcast
9:15 AM 46.4°F 46.4°F 100% 30.20 in 5.0 miles East 5.8 mph - 0.00 in   Overcast
9:35 AM 46.4°F 46.4°F 100% 30.21 in 6.0 miles East 6.9 mph - 0.00 in   Overcast
9:55 AM 46.4°F 46.4°F 100% 30.21 in 9.0 miles ENE 5.8 mph - 0.00 in   Overcast
10:15 AM 46.4°F 46.4°F 100% 30.21 in 9.0 miles ENE 4.6 mph - 0.00 in   Overcast
10:35 AM 46.4°F 46.4°F 100% 30.21 in 9.0 miles East 9.2 mph - 0.00 in   Overcast
10:55 AM 46.4°F 46.4°F 100% 30.21 in 5.0 miles East 5.8 mph - 0.00 in   Overcast
11:15 AM 48.2°F 48.2°F 100% 30.20 in 6.0 miles East 6.9 mph - 0.00 in   Overcast
11:35 AM 48.2°F 48.2°F 100% 30.20 in 2.5 miles East 6.9 mph - 0.00 in   Overcast
11:55 AM 48.2°F 48.2°F 100% 30.19 in 3.0 miles East 8.1 mph - 0.00 in   Overcast
12:15 PM 48.2°F 48.2°F 100% 30.18 in 5.0 miles East 6.9 mph - 0.00 in   Overcast
12:35 PM 48.2°F 48.2°F 100% 30.18 in 9.0 miles ENE 6.9 mph - 0.00 in   Overcast
12:55 PM 48.2°F 48.2°F 100% 30.17 in 9.0 miles ENE 8.1 mph - 0.00 in   Overcast
1:15 PM 48.2°F 48.2°F 100% 30.17 in 10.0 miles East 5.8 mph - 0.00 in   Overcast
1:35 PM 48.2°F 48.2°F 100% 30.17 in 10.0 miles ESE 4.6 mph - 0.00 in   Overcast
1:55 PM 48.2°F 48.2°F 100% 30.17 in 10.0 miles East 4.6 mph - 0.00 in   Overcast
2:15 PM 48.2°F 48.2°F 100% 30.16 in 8.0 miles ENE 4.6 mph - 0.00 in   Overcast
2:35 PM 48.2°F 48.2°F 100% 30.16 in 9.0 miles East 3.5 mph - 0.00 in   Overcast
2:55 PM 48.2°F 48.2°F 100% 30.16 in 5.0 miles ENE 3.5 mph - 0.01 in   Overcast
3:15 PM 48.2°F 48.2°F 100% 30.16 in 4.0 miles ENE 3.5 mph - 0.01 in   Overcast
3:35 PM 48.2°F 48.2°F 100% 30.16 in 3.0 miles ENE 4.6 mph - 0.02 in   Overcast
4:15 PM 46.4°F 46.4°F 100% 30.15 in 5.0 miles NE 5.8 mph - 0.01 in   Overcast
4:35 PM 46.4°F 46.4°F 100% 30.15 in 7.0 miles NE 6.9 mph - 0.01 in   Overcast
4:55 PM 46.4°F 46.4°F 100% 30.15 in 9.0 miles NE 6.9 mph - 0.02 in   Overcast
5:15 PM 46.4°F 46.4°F 100% 30.15 in 5.0 miles NE 5.8 mph - 0.01 in   Overcast
5:35 PM 46.4°F 46.4°F 100% 30.15 in 4.0 miles NE 3.5 mph - 0.02 in   Overcast
5:55 PM 46.4°F 46.4°F 100% 30.14 in 3.0 miles NE 5.8 mph - 0.06 in   Overcast
6:15 PM 46.4°F 46.4°F 100% 30.14 in 5.0 miles ENE 8.1 mph - 0.01 in   Overcast
6:35 PM 46.4°F 46.4°F 100% 30.14 in 3.0 miles ENE 6.9 mph - 0.01 in   Overcast
6:55 PM 46.4°F 46.4°F 100% 30.14 in 4.0 miles ENE 8.1 mph - 0.02 in   Overcast
7:15 PM 46.4°F 46.4°F 100% 30.14 in 4.0 miles ENE 6.9 mph - 0.01 in   Overcast
7:35 PM 46.4°F 46.4°F 100% 30.15 in 9.0 miles ESE 3.5 mph - 0.01 in   Overcast
7:55 PM 46.4°F 46.4°F 100% 30.15 in 10.0 miles East 3.5 mph - 0.01 in   Overcast
8:15 PM 46.4°F 46.4°F 100% 30.15 in 10.0 miles East 4.6 mph - 0.00 in   Overcast
8:35 PM 46.4°F 46.4°F 100% 30.15 in 8.0 miles East 3.5 mph - 0.00 in   Overcast
9:15 PM 46.4°F 46.4°F 100% 30.15 in 10.0 miles ENE 5.8 mph - 0.01 in   Overcast
9:35 PM 46.4°F 46.4°F 100% 30.16 in 10.0 miles Calm Calm - 0.01 in   Overcast
9:55 PM 46.4°F 46.4°F 100% 30.16 in 10.0 miles Calm Calm - 0.01 in   Overcast
10:15 PM 46.4°F 46.4°F 100% 30.16 in 7.0 miles ENE 3.5 mph - 0.00 in   Overcast
10:35 PM 46.4°F 46.4°F 100% 30.17 in 10.0 miles NE 3.5 mph - 0.00 in   Overcast
10:55 PM 46.4°F 46.4°F 100% 30.17 in 10.0 miles NNE 3.5 mph - 0.00 in   Overcast
11:15 PM 46.4°F 46.4°F 100% 30.17 in 9.0 miles ENE 3.5 mph - 0.00 in   Overcast
11:35 PM 46.4°F 46.4°F 100% 30.18 in 10.0 miles NE 3.5 mph - 0.00 in   Overcast
11:55 PM 46.4°F 46.4°F 100% 30.18 in 9.0 miles Calm Calm - 0.00 in   Overcast
Moon Phase
Nov. 13 Nov. 13 Nov. 20 Nov. 28 Dec. 06
Sunrise:07:15 AM (PST) Moon Rise:07:01 AM (PST)11/13
Sunset:04:32 PM (PST) Moon Set:04:27 PM (PST)11/13

Copyright © 2014 The Weather Underground, Inc.